Torna al catalogo

COSMOS 1327

AttivoMilitareLEO
NORAD 12982·PAYLOAD·🇷🇺 Russia

Lanciato Nov 28, 1981 da Plesetsk Cosmodrome

Loading…

Prossimi Passaggi (prossime 24 ore)

TLE

AggiornatoSource: Space-Track

Epoca: Sep 14, 2026, 04:16 UTC

1 12982U 81116H   26257.17808054  .00000003  00000-0  15446-3 0  9990
2 12982  73.9834 164.2840 0077012 349.9957  80.6728 12.31648050 13977

Traccia COSMOS 1327 in tempo reale con AllMySat

Download on the App Store